Weather History for Tupelo, MS

Change the Weather History Date:

Sunday, February 2, 2014

  Actual Average Record
Temperature  
Mean Temperature 48 °F 43 °F  
Max Temperature 60 °F 54 °F 77 °F (1989)
Min Temperature 36 °F 33 °F -1 °F (1951)
Degree Days  
Heating Degree Days 17 22  
Month to date heating degree days 28 44  
Since 1 July heating degree days 2235 1940  
Cooling Degree Days 0 0  
Month to date cooling degree days 0 0  
Year to date cooling degree days 0 1  
Moisture  
Dew Point 43 °F    
Average Humidity 90    
Maximum Humidity 96    
Minimum Humidity 83    
Precipitation  
Precipitation 1.27 in 0.16 in 1.64 in (1932)
Month to date precipitation 1.27 0.32  
Year to date precipitation 3.04 4.80  
Snow  
Snow 0.00 in 0.10 in 0.50 in (1985)
Month to date snowfall 0.0 0.1  
Since 1 July snowfall T 1.3  
Snow Depth 0.00 in    
Sea Level Pressure  
Sea Level Pressure 30.00 in    
Wind  
Wind Speed 13 mph (NNE)    
Max Wind Speed 23 mph    
Max Gust Speed 29 mph    
Visibility 6 miles    
Events Rain , Snow    
T = Trace of Precipitation, MM = Missing Value Source: NWS Daily Summary

Daily Weather History Graph

Daily Weather History Graph

Search for Another Location

Airport:

Trip Planner

Search our weather history database for the weather conditions in past years. The results will help you decide how hot, cold, wet, or windy it might be!

Date:

Astronomy

Feb. 02, 2014 Rise Set
Actual Time 6:51 AM CST 5:26 PM CST
Civil Twilight 6:25 AM CST 5:52 PM CST
Nautical Twilight 5:55 AM CST 6:22 PM CST
Astronomical Twilight 5:26 AM CST 6:52 PM CST
Moon 8:28 AM CST (2/2) 8:58 PM CST (2/2)
Length of Visible Light 11h 27m
Length of Day
10h 34m
Waxing Crescent, 11% of the Moon is Illuminated
Feb 2
Waxing Crescent
Feb 6
First Quarter
Feb 14
Full
Feb 22
Last Quarter
Mar 1
New

Hourly Weather History & Observations

Time (CST) Temp. Windchill Dew Point Humidity Pressure Visibility Wind Dir Wind Speed Gust Speed Precip Events Conditions
12:53 AM 55.0 °F - 50.0 °F 83% 29.95 in 10.0 mi South 6.9 mph - N/A   Scattered Clouds
1:53 AM 54.0 °F - 50.0 °F 86% 29.95 in 10.0 mi SSW 8.1 mph - N/A   Mostly Cloudy
2:53 AM 55.9 °F - 52.0 °F 87% 29.95 in 10.0 mi SSW 10.4 mph - N/A   Mostly Cloudy
3:38 AM 57.2 °F - 53.6 °F 88% 29.96 in 10.0 mi SSW 8.1 mph - N/A   Overcast
3:53 AM 57.0 °F - 54.0 °F 89% 29.95 in 10.0 mi SSW 6.9 mph - N/A   Overcast
4:26 AM 55.4 °F - 53.6 °F 94% 29.97 in 10.0 mi SSW 6.9 mph - N/A   Overcast
4:53 AM 57.9 °F - 54.0 °F 87% 29.97 in 10.0 mi SSW 5.8 mph - 0.01 in   Overcast
5:15 AM 57.2 °F - 53.6 °F 88% 29.98 in 10.0 mi SW 4.6 mph - N/A   Overcast
5:53 AM 57.9 °F - 55.0 °F 90% 29.99 in 9.0 mi SSW 8.1 mph - N/A   Overcast
6:24 AM 59.0 °F - 55.4 °F 88% 29.99 in 9.0 mi SSW 6.9 mph - N/A   Overcast
6:44 AM 60.8 °F - 55.4 °F 82% 30.01 in 9.0 mi North 9.2 mph - N/A   Overcast
6:46 AM 60.8 °F - 55.4 °F 82% 30.01 in 9.0 mi North 5.8 mph - N/A   Overcast
6:53 AM 60.1 °F - 55.9 °F 86% 30.01 in 8.0 mi NW 3.5 mph - 0.01 in   Overcast
7:01 AM 60.8 °F - 55.4 °F 82% 30.03 in 6.0 mi NNW 3.5 mph - 0.00 in Rain Light Rain
7:09 AM 55.4 °F - 51.8 °F 88% 30.04 in 7.0 mi North 11.5 mph 17.3 mph 0.01 in Rain Light Rain
7:21 AM 53.6 °F - 50.0 °F 88% 30.04 in 10.0 mi NNE 11.5 mph - 0.01 in Rain Light Rain
7:53 AM 52.0 °F - 50.0 °F 93% 30.04 in 9.0 mi NE 6.9 mph - 0.01 in   Overcast
8:15 AM 51.8 °F - 50.0 °F 94% 30.05 in 10.0 mi North 6.9 mph - N/A   Overcast
8:26 AM 51.8 °F - 48.2 °F 88% 30.05 in 9.0 mi NNE 8.1 mph - N/A   Overcast
8:53 AM 48.9 °F - 48.0 °F 97% 30.06 in 3.0 mi NNE 9.2 mph - 0.00 in Rain Light Rain
9:09 AM 48.2 °F - 46.4 °F 93% 30.05 in 2.5 mi NNE 9.2 mph - 0.01 in Rain Light Rain
9:24 AM 48.2 °F - 46.4 °F 93% 30.06 in 6.0 mi NNE 8.1 mph - 0.01 in   Overcast
9:49 AM 46.4 °F 40.7 °F 44.6 °F 93% 30.08 in 2.0 mi North 12.7 mph - 0.04 in Rain Light Rain
9:53 AM 46.9 °F - 45.0 °F 93% 30.08 in 2.0 mi North 13.8 mph 19.6 mph 0.06 in Rain Heavy Rain
10:05 AM 46.4 °F 40.4 °F 44.6 °F 93% 30.08 in 5.0 mi NNE 13.8 mph - 0.02 in Rain Light Rain
10:53 AM 43.0 °F 36.0 °F 39.9 °F 89% 30.06 in 8.0 mi NE 13.8 mph - 0.03 in Rain Light Rain
11:38 AM 42.8 °F 35.1 °F 39.2 °F 87% 30.04 in 2.5 mi NE 16.1 mph - 0.05 in Rain Light Rain
11:53 AM 42.1 °F 35.2 °F 39.9 °F 92% 30.04 in 2.5 mi NNE 12.7 mph - 0.08 in Rain Rain
12:04 PM 41.0 °F 33.9 °F 39.2 °F 93% 30.04 in 5.0 mi NNE 12.7 mph - 0.00 in Rain Light Rain
12:53 PM 42.1 °F 33.9 °F 39.0 °F 89% 29.99 in 7.0 mi NE 17.3 mph - 0.04 in   Overcast
1:29 PM 42.8 °F 35.1 °F 39.2 °F 87% 29.97 in 1.8 mi NE 16.1 mph - 0.02 in Rain Heavy Rain
1:40 PM 42.8 °F 35.1 °F 39.2 °F 87% 29.98 in 3.0 mi NNE 16.1 mph - 0.06 in Rain Light Rain
1:53 PM 41.0 °F 32.5 °F 39.0 °F 93% 29.96 in 5.0 mi NE 17.3 mph - 0.07 in Rain Light Rain
2:53 PM 41.0 °F 33.5 °F 39.0 °F 93% 29.93 in 4.0 mi NE 13.8 mph - 0.00 in Rain Light Rain
3:11 PM 41.0 °F 33.1 °F 39.2 °F 93% 29.94 in 2.0 mi NNE 15.0 mph - 0.01 in Rain Light Rain
3:19 PM 41.0 °F 32.2 °F 39.2 °F 93% 29.95 in 1.5 mi NNE 18.4 mph - 0.02 in Rain Light Rain
3:48 PM 39.2 °F 32.5 °F 37.4 °F 93% 29.99 in 2.5 mi NNE 10.4 mph 20.7 mph 0.23 in Rain Light Rain
3:53 PM 39.9 °F 30.8 °F 37.0 °F 89% 29.98 in 4.0 mi NNE 18.4 mph 28.8 mph 0.23 in Rain Light Rain
4:49 PM 37.4 °F 27.5 °F 35.6 °F 93% 29.98 in 5.0 mi NE 18.4 mph 26.5 mph 0.02 in Rain Light Rain
4:53 PM 37.9 °F 27.6 °F 35.1 °F 89% 29.98 in 7.0 mi ENE 20.7 mph - 0.02 in Rain Light Rain
5:01 PM 37.4 °F 27.8 °F 35.6 °F 93% 29.98 in 10.0 mi NE 17.3 mph 25.3 mph 0.00 in   Overcast
5:53 PM 37.0 °F 27.4 °F 35.1 °F 93% 30.00 in 7.0 mi NNE 17.3 mph - 0.09 in Rain Light Rain
6:53 PM 37.0 °F 27.4 °F 35.1 °F 93% 29.95 in 9.0 mi NE 17.3 mph - 0.01 in Snow Light Snow
7:53 PM 36.0 °F 25.3 °F 34.0 °F 93% 29.98 in 5.0 mi NNE 19.6 mph 24.2 mph 0.10 in Rain Rain
8:25 PM 35.6 °F 25.5 °F 33.8 °F 93% 30.00 in 2.5 mi NNE 17.3 mph 26.5 mph 0.14 in Rain Heavy Rain
8:33 PM 35.6 °F 24.2 °F 33.8 °F 93% 29.97 in 6.0 mi NE 21.9 mph 28.8 mph 0.14 in Rain Light Rain
8:53 PM 36.0 °F 27.1 °F 34.0 °F 93% 30.05 in 2.5 mi North 13.8 mph 19.6 mph 0.26 in Rain Heavy Rain
9:02 PM 35.6 °F 26.2 °F 33.8 °F 93% 30.01 in 3.0 mi NE 15.0 mph 20.7 mph 0.08 in Rain Heavy Rain
9:12 PM 35.6 °F 25.5 °F 33.8 °F 93% 30.01 in 4.0 mi NNE 17.3 mph - 0.13 in Rain Heavy Rain
9:19 PM 35.6 °F 26.2 °F 33.8 °F 93% 29.99 in 5.0 mi NE 15.0 mph - 0.16 in Rain Rain
9:27 PM 35.6 °F 26.6 °F 33.8 °F 93% 29.97 in 8.0 mi ENE 13.8 mph - 0.18 in Rain Rain
9:53 PM 37.0 °F 27.7 °F 35.1 °F 93% 29.98 in 10.0 mi NE 16.1 mph - 0.24 in Rain Light Rain
10:53 PM 37.0 °F 28.5 °F 35.1 °F 93% 30.01 in 10.0 mi NNE 13.8 mph 24.2 mph 0.00 in   Overcast
11:53 PM 37.0 °F 28.9 °F 34.0 °F 89% 30.05 in 10.0 mi North 12.7 mph - 0.01 in   Overcast